Temperature
9 9 9 8 8 7 7 6 6 6 6 6 6 5 5 5 5 5 5 5 5 5 5 5 5 5 5 5 5 5 5 5 5 5 5 5 5 5
9 8 8 8 7 7 7 6 5 5 5 5 5 5 5 4 4 4 4 4 4 4 4 4 4 4 4 4 4 5 5 5 5 5 5 5 5 5
8 8 7 7 6 6 6 6 5 4 4 4 4 4 4 4 4 3 3 3 3 3 3 3 3 3 3 4 4 4 4 4 4 4 4 4 4 4
7 7 6 6 5 5 5 5 4 4 4 4 3 3 3 3 3 3 3 3 2 2 2 2 2 3 3 3 3 3 3 3 3 3 3 3 3 3
6 6 5 5 4 4 4 4 4 3 3 3 3 3 3 3 3 2 2 2 2 2 2 2 2 2 2 2 2 2 2 3 3 3 3 3 3 2
5 5 4 4 4 3 3 3 3 3 3 3 3 2 2 2 2 2 2 2 2 1 1 1 1 1 1 1 1 1 2 2 2 2 2 2 2 2
4 4 3 3 3 3 3 2 2 2 2 2 2 2 2 2 2 2 2 1 1 1 1 1 1 1 1 1 1 1 1 1 1 1 1 1 1 1
3 3 2 2 2 2 2 2 2 2 2 2 2 1 1 1 1 1 1 1 1 1 1 0 0 0 0 0 0 0 0 0 0 0 1 1 1 1
3 2 2 2 1 1 1 1 1 1 1 1 1 1 1 1 1 1 1 1 0 0 0 0 -0 -0 -0 -0 -0 -0 -0 -0 -0 -0 -0 -0 0 0
2 2 1 1 1 1 0 1 1 1 1 1 1 1 0 0 0 0 0 0 -0 -0 -0 -0 -0 -1 -1 -1 -1 -1 -1 -1 -1 -1 -1 -1 -1 -1
1 1 1 0 0 0 -0 -0 0 0 0 0 0 0 0 0 0 0 -0 -0 -0 -1 -1 -1 -1 -1 -1 -1 -1 -1 -1 -1 -1 -1 -1 -1 -1 -1
1 0 0 -0 -0 -1 -1 -1 -1 -0 -0 -0 -0 -0 -0 -0 -0 -1 -1 -1 -1 -1 -1 -1 -1 -1 -1 -1 -1 -2 -2 -2 -2 -2 -2 -2 -2 -2
0 -0 -0 -1 -1 -1 -1 -1 -1 -1 -1 -1 -1 -1 -1 -1 -1 -1 -1 -1 -1 -2 -2 -2 -2 -2 -2 -2 -2 -2 -2 -2 -2 -2 -2 -2 -2 -2
-0 -1 -1 -1 -1 -2 -2 -2 -2 -2 -2 -2 -2 -2 -2 -2 -2 -2 -2 -2 -2 -2 -2 -2 -2 -2 -2 -2 -2 -2 -2 -3 -3 -2 -3 -3 -3 -3
-1 -1 -1 -2 -2 -2 -2 -2 -2 -2 -2 -2 -2 -2 -2 -2 -2 -2 -2 -2 -2 -2 -2 -2 -2 -2 -3 -3 -2 -2 -2 -3 -3 -3 -3 -3 -3 -3
-1 -1 -2 -2 -2 -2 -3 -3 -3 -3 -3 -3 -3 -3 -3 -3 -3 -3 -3 -3 -3 -3 -3 -3 -3 -3 -3 -3 -3 -3 -3 -3 -3 -3 -3 -3 -3 -3
-1 -2 -2 -2 -2 -2 -3 -3 -3 -3 -3 -3 -3 -3 -3 -3 -3 -3 -3 -3 -3 -3 -3 -3 -3 -3 -3 -3 -3 -3 -3 -3 -3 -4 -3 -3 -3 -4
-2 -2 -2 -2 -2 -2 -3 -3 -3 -3 -3 -3 -3 -3 -3 -3 -3 -3 -3 -3 -3 -3 -3 -4 -4 -4 -4 -3 -3 -3 -3 -3 -4 -4 -4 -4 -3 -4
-2 -2 -2 -2 -2 -2 -3 -3 -3 -3 -3 -3 -3 -3 -3 -4 -4 -4 -4 -3 -3 -3 -4 -4 -4 -4 -4 -4 -4 -4 -4 -4 -4 -4 -4 -4 -4 -4
-2 -2 -2 -2 -2 -3 -3 -3 -3 -3 -3 -3 -3 -3 -3 -4 -4 -4 -4 -4 -4 -4 -4 -4 -4 -4 -5 -5 -5 -4 -4 -4 -5 -5 -5 -5 -4 -4
-2 -2 -2 -2 -3 -3 -3 -3 -3 -3 -3 -3 -3 -3 -3 -4 -4 -4 -4 -4 -4 -4 -4 -4 -4 -5 -5 -6 -5 -4 -4 -5 -5 -5 -5 -5 -5 -4
-2 -3 -3 -3 -3 -3 -3 -3 -3 -3 -3 -3 -3 -3 -3 -4 -4 -4 -4 -4 -4 -4 -4 -5 -5 -6 -6 -6 -5 -5 -5 -5 -6 -6 -6 -6 -6 -6
-3 -3 -3 -3 -3 -3 -3 -3 -3 -3 -3 -3 -4 -4 -4 -4 -4 -4 -4 -5 -5 -5 -5 -5 -5 -6 -6 -6 -6 -6 -6 -6 -6 -6 -6 -6 -7 -6
Wind_Speed
2 2 1 1 0 1 1 2 3 3 4 4 2 2 2 3 4 5 6 7 8 9 10 11 12 12 12 12 13 13 12 11 11 10 9 9 8 8
2 2 1 1 0 0 0 1 2 3 2 2 2 2 2 3 4 5 6 8 8 8 10 11 11 12 12 12 12 13 13 13 12 11 10 10 10 10
2 3 2 1 1 0 0 1 1 2 3 1 1 2 2 3 4 5 7 8 8 8 9 10 10 11 12 12 12 13 13 14 13 12 11 10 11 10
3 3 2 2 1 0 0 1 1 1 2 3 2 2 2 2 3 3 5 7 8 8 9 9 10 10 11 11 12 12 12 13 13 13 13 12 11 10
3 3 3 3 2 1 1 1 1 0 1 2 2 2 2 2 3 3 3 5 6 7 8 9 9 9 10 10 11 11 11 12 12 12 12 12 11 10
3 2 2 2 2 2 1 1 1 1 1 2 3 2 2 2 2 2 2 3 3 5 6 7 8 9 9 9 9 9 10 10 10 11 10 10 10 10
3 2 2 2 3 3 2 2 2 2 2 2 2 2 2 2 2 2 2 2 2 3 2 4 5 7 8 7 7 8 8 8 8 8 8 8 9 8
3 2 1 1 2 2 2 2 3 3 3 3 3 3 3 3 3 3 3 2 1 1 1 2 3 2 4 5 5 6 6 7 7 7 7 7 7 6
4 3 2 1 2 2 3 3 2 1 3 4 4 4 4 5 5 4 3 2 2 1 1 1 1 1 2 4 3 4 5 5 5 5 5 5 5 5
4 4 3 2 2 3 3 3 3 3 2 1 3 3 3 4 5 5 5 4 3 1 1 1 0 0 2 4 3 3 3 4 4 3 4 4 3 3
3 4 4 4 5 5 4 3 2 2 3 4 4 4 5 7 8 6 5 3 2 1 0 2 1 0 1 1 3 3 2 2 2 2 2 2 2 3
3 3 6 6 7 7 5 4 3 1 1 3 4 5 5 5 7 5 5 4 2 2 1 2 1 1 0 1 1 2 2 2 3 2 2 2 1 2
4 3 4 8 8 8 7 5 6 4 3 3 3 3 3 3 3 4 4 4 3 2 3 3 2 1 1 1 1 1 1 1 2 2 2 2 2 1
5 4 5 8 9 9 6 7 8 6 4 3 3 2 2 1 1 3 4 4 3 3 5 5 3 3 2 1 2 1 1 2 2 1 2 3 4 4
5 8 9 9 8 6 8 9 7 5 4 3 3 3 2 3 3 3 3 3 3 2 4 4 4 3 3 3 2 1 1 2 2 2 2 3 4 4
5 7 9 9 7 7 6 5 4 5 5 4 4 3 3 3 3 3 2 2 1 0 1 4 6 5 3 3 3 4 3 3 2 2 3 4 6 7
5 3 3 3 4 4 3 3 4 4 5 4 4 4 4 4 3 3 3 3 3 2 2 1 3 5 6 4 4 5 5 4 4 3 3 4 5 8
7 4 5 5 6 6 6 5 5 5 5 5 5 5 5 5 4 4 3 4 4 4 3 3 2 1 1 4 10 6 5 4 4 4 4 4 5 5
7 5 6 7 6 6 6 6 6 6 5 6 6 6 5 5 5 5 5 5 5 4 4 4 4 4 3 3 4 9 5 3 3 3 4 5 5 5
5 6 6 6 6 7 7 7 6 6 6 6 6 6 6 6 6 6 6 7 6 5 5 5 6 7 6 4 3 3 8 6 4 4 3 4 6 10
6 6 6 6 6 6 7 7 7 7 7 7 7 7 7 7 7 7 7 10 8 6 7 7 7 10 4 2 3 4 4 10 9 5 3 3 4 3
6 6 6 6 6 6 6 6 7 7 7 8 7 7 7 7 8 9 8 7 8 8 7 5 4 5 5 7 7 5 4 4 9 13 13 11 5 4
6 6 6 6 6 6 6 7 8 7 7 7 7 7 8 8 8 8 8 8 7 7 7 5 5 5 7 7 7 7 7 6 4 6 8 15 19 21
Wind_Direction
144 144 156 163 184 228 237 230 233 239 223 186 176 132 124 97 79 75 62 59 62 64 61 56 53 52 52 49 45 49 55 63 71 74 75 74 76 79
136 134 140 168 154 31 258 250 241 239 232 149 156 132 122 108 92 83 76 67 63 71 69 61 58 57 56 55 54 54 57 64 68 70 71 73 73 76
124 138 145 139 139 39 308 242 239 232 223 140 106 107 112 109 90 83 77 68 62 70 71 67 63 60 58 58 57 58 61 63 65 67 70 73 76 76
152 148 159 151 148 136 187 225 227 230 189 175 145 128 114 122 107 88 72 71 64 68 74 73 69 65 61 59 58 61 63 65 65 65 67 70 74 73
156 164 169 159 172 188 200 222 232 214 146 151 144 126 110 110 100 80 70 60 61 60 70 71 70 68 66 64 61 62 65 67 67 67 66 67 67 68
131 147 160 172 189 197 205 217 197 151 135 136 134 129 124 111 117 122 97 59 47 43 60 65 66 67 63 66 66 66 69 71 71 70 69 68 67 65
127 133 154 184 199 195 193 194 173 156 146 146 141 135 147 150 165 148 132 103 63 38 42 40 50 54 48 52 61 67 70 71 71 70 70 69 66 65
155 149 147 151 176 173 153 164 171 171 175 168 167 176 180 171 145 142 132 136 174 35 71 40 44 48 37 36 58 70 73 75 75 71 69 67 64 62
167 167 165 149 124 90 85 75 59 97 187 172 177 190 179 177 159 149 150 144 155 150 101 88 31 45 25 21 51 82 80 78 75 70 66 64 61 57
176 180 175 167 158 143 118 88 54 31 55 132 179 187 179 163 160 153 143 118 94 54 84 130 70 32 3 6 34 90 90 84 75 68 62 58 54 46
185 185 181 185 195 168 142 131 95 28 61 98 118 132 143 149 144 125 131 128 138 163 72 125 123 26 354 343 19 45 85 76 56 48 45 40 42 45
186 200 205 202 206 189 162 161 173 186 95 83 79 80 87 124 143 143 149 142 144 183 186 128 115 84 45 331 350 15 51 49 37 39 32 18 20 52
192 202 219 217 215 207 189 182 198 178 148 131 113 92 79 79 90 117 136 144 153 189 168 132 129 114 137 279 312 336 358 345 348 353 354 336 320 297
198 201 212 219 219 216 204 202 203 176 144 146 149 157 156 154 128 124 129 133 144 175 172 151 149 159 148 191 261 306 306 278 264 275 304 318 316 303
199 207 212 218 219 218 213 212 199 167 162 177 191 197 188 167 142 124 111 111 98 127 170 179 160 159 166 191 222 248 286 274 244 240 266 277 276 279
199 213 217 218 212 208 214 212 182 178 182 192 194 183 156 153 163 161 156 143 131 319 198 194 186 168 183 208 216 239 229 247 254 242 267 271 267 259
170 166 173 182 194 192 190 190 186 191 200 181 182 181 181 180 182 168 165 161 177 187 195 189 203 209 210 199 226 241 238 240 244 247 250 269 261 254
187 189 199 202 207 207 207 205 202 205 202 194 193 195 196 195 192 179 177 186 203 207 201 187 166 173 268 252 226 234 236 240 235 230 226 256 275 258
207 205 207 208 210 209 208 209 212 208 198 198 203 204 200 198 195 198 198 205 216 217 209 187 178 178 208 259 253 216 207 213 216 228 229 233 259 269
209 212 215 212 210 211 212 215 216 207 203 206 207 206 201 199 202 206 206 209 214 214 213 203 200 200 207 217 237 244 219 212 214 232 244 249 262 273
215 216 215 215 215 213 214 213 212 212 209 207 210 208 204 203 210 211 211 220 217 215 223 223 220 214 196 176 244 252 233 227 225 220 217 250 274 268
217 220 219 216 216 216 215 214 215 216 213 213 213 210 206 205 211 212 212 215 218 219 225 219 187 185 188 212 237 246 249 244 246 247 243 235 223 230
221 220 219 218 217 216 216 216 217 220 217 215 213 211 208 210 212 213 213 215 217 219 219 211 195 197 210 219 235 246 249 249 250 252 251 250 249 253
Height
1510 1510 1510 1510 1510 1510 1511 1511 1512 1511 1510 1511 1512 1512 1512 1513 1513 1513 1513 1513 1512 1512 1512 1512 1512 1512 1511 1511 1511 1511 1511 1511 1511 1512 1513 1513 1514 1516
1505 1505 1505 1505 1505 1505 1505 1506 1506 1507 1506 1506 1507 1508 1508 1509 1509 1509 1509 1509 1510 1509 1509 1510 1510 1510 1510 1509 1509 1509 1509 1510 1510 1511 1511 1512 1513 1514
1500 1500 1500 1500 1500 1500 1500 1500 1501 1501 1501 1502 1503 1504 1504 1505 1506 1506 1506 1507 1507 1507 1507 1507 1508 1508 1508 1508 1508 1508 1508 1508 1509 1509 1510 1511 1511 1513
1495 1495 1495 1495 1495 1495 1496 1496 1496 1496 1497 1497 1498 1499 1500 1501 1502 1503 1503 1504 1504 1505 1505 1505 1506 1506 1506 1507 1507 1507 1507 1507 1508 1508 1509 1509 1510 1511
1490 1490 1490 1490 1491 1491 1491 1491 1492 1492 1493 1493 1494 1495 1496 1498 1499 1500 1500 1501 1502 1502 1503 1503 1503 1504 1504 1505 1505 1506 1506 1506 1507 1507 1508 1508 1509 1510
1486 1486 1486 1486 1487 1487 1487 1487 1488 1488 1489 1490 1490 1491 1493 1494 1495 1496 1497 1498 1499 1500 1500 1501 1501 1502 1503 1503 1504 1504 1504 1505 1505 1506 1506 1507 1507 1508
1482 1482 1482 1482 1483 1483 1483 1483 1484 1485 1485 1486 1487 1488 1489 1490 1492 1493 1494 1495 1496 1497 1498 1499 1499 1500 1500 1501 1502 1502 1503 1503 1504 1504 1505 1505 1506 1506
1478 1478 1478 1479 1479 1479 1480 1480 1481 1481 1482 1483 1484 1485 1486 1487 1489 1490 1491 1492 1493 1495 1495 1496 1497 1497 1498 1499 1500 1500 1501 1501 1502 1502 1503 1503 1504 1504
1474 1474 1475 1475 1475 1476 1476 1477 1477 1478 1479 1480 1481 1482 1483 1484 1486 1487 1488 1489 1491 1492 1493 1493 1494 1495 1496 1497 1497 1498 1498 1499 1500 1500 1501 1501 1501 1502
1471 1471 1471 1472 1472 1472 1473 1474 1474 1475 1476 1477 1478 1479 1481 1482 1483 1484 1485 1487 1488 1489 1490 1491 1492 1493 1494 1494 1495 1496 1496 1497 1497 1498 1498 1499 1499 1499
1467 1467 1468 1468 1469 1469 1470 1471 1472 1473 1474 1474 1475 1476 1478 1479 1480 1482 1483 1484 1485 1487 1488 1488 1489 1490 1491 1492 1492 1493 1494 1494 1495 1495 1496 1496 1496 1497
1464 1464 1465 1465 1466 1466 1467 1468 1469 1470 1471 1472 1473 1474 1475 1476 1478 1479 1480 1482 1483 1484 1485 1486 1486 1488 1488 1489 1490 1490 1491 1492 1492 1493 1493 1493 1493 1494
1460 1461 1462 1462 1463 1464 1465 1466 1467 1468 1468 1469 1470 1472 1473 1474 1475 1476 1478 1479 1480 1481 1482 1483 1484 1485 1486 1486 1487 1488 1488 1489 1489 1489 1490 1490 1490 1490
1457 1458 1459 1459 1460 1461 1462 1463 1464 1465 1466 1467 1468 1469 1470 1471 1472 1474 1475 1476 1477 1479 1479 1480 1481 1482 1483 1483 1484 1484 1485 1485 1486 1486 1486 1486 1486 1487
1453 1454 1455 1456 1457 1458 1459 1460 1461 1462 1463 1464 1465 1466 1468 1468 1469 1471 1472 1473 1474 1475 1476 1477 1478 1478 1479 1480 1480 1481 1481 1482 1482 1482 1482 1482 1483 1482
1449 1450 1451 1452 1453 1455 1456 1457 1458 1459 1460 1461 1462 1463 1464 1465 1466 1468 1469 1470 1471 1472 1473 1473 1474 1475 1475 1476 1476 1477 1478 1478 1478 1478 1478 1478 1478 1478
1445 1446 1447 1448 1449 1451 1452 1453 1454 1455 1456 1457 1458 1459 1460 1462 1463 1464 1465 1466 1467 1468 1469 1470 1470 1471 1471 1472 1472 1473 1473 1473 1473 1473 1473 1473 1473 1473
1440 1441 1442 1444 1445 1446 1448 1449 1450 1451 1452 1453 1454 1455 1456 1458 1459 1460 1461 1462 1463 1464 1465 1465 1466 1466 1467 1467 1468 1467 1468 1468 1468 1468 1468 1467 1468 1468
1435 1436 1438 1439 1441 1442 1443 1444 1445 1447 1448 1448 1449 1450 1452 1453 1454 1455 1456 1457 1458 1459 1460 1461 1461 1461 1461 1461 1462 1463 1463 1463 1463 1463 1463 1462 1462 1462
1430 1432 1433 1435 1436 1437 1438 1439 1440 1441 1442 1443 1444 1445 1446 1447 1448 1449 1451 1452 1453 1454 1454 1455 1456 1456 1457 1457 1457 1457 1458 1458 1458 1457 1457 1457 1456 1456
1426 1427 1428 1429 1430 1431 1432 1433 1434 1435 1436 1437 1438 1439 1440 1442 1443 1444 1445 1446 1447 1447 1448 1450 1451 1452 1451 1451 1451 1451 1452 1453 1452 1452 1451 1451 1450 1449
1421 1422 1423 1424 1425 1426 1426 1427 1428 1429 1430 1431 1432 1433 1434 1435 1436 1438 1439 1440 1441 1441 1443 1444 1445 1445 1445 1444 1444 1445 1446 1447 1446 1446 1446 1445 1444 1443
1415 1416 1417 1418 1419 1419 1420 1421 1422 1423 1424 1425 1426 1427 1428 1429 1430 1431 1432 1433 1434 1435 1436 1437 1438 1438 1438 1438 1438 1439 1439 1439 1439 1439 1439 1439 1439 1438